Presure
241 250 220 216 224 225 201 206 196 195 196 191 192 183 179 188 184 181 184 178 184 178 187 173 184 187 136 179 188 219 188 202 245 226 206 239 226 211 208 210 212 190 186
231 230 239 218 208 231 199 197 192 194 195 198 192 189 194 196 177 184 122 187 189 178 176 142 187 143 183 198 174 196 184 200 251 222 211 238 221 217 217 215 204 212 201
257 234 214 229 223 204 204 197 196 194 197 197 188 183 182 180 183 142 184 183 189 175 182 190 177 181 192 161 191 180 202 192 203 242 215 195 228 218 209 207 210 208 202
233 239 240 232 237 221 208 199 199 197 194 195 198 192 184 145 183 182 182 183 183 183 143 179 180 174 158 193 214 216 202 207 198 267 221 200 211 219 210 198 212 222 213
240 257 257 242 229 227 219 214 205 200 192 195 195 197 197 194 186 186 184 185 183 179 187 192 188 191 168 180 178 183 210 217 200 200 245 211 198 234 222 202 210 208 199
245 250 246 242 233 227 226 224 215 204 204 200 194 200 200 195 203 195 191 187 193 190 188 190 206 157 156 204 169 221 211 201 193 203 217 213 200 197 220 222 205 199 203
233 243 249 239 230 188 226 225 224 215 205 206 205 197 197 204 206 210 196 187 227 233 228 191 198 221 218 156 185 223 163 211 218 208 224 220 203 194 194 222 203 208 207
256 253 238 246 242 233 226 224 226 224 220 212 209 209 208 208 206 207 204 203 201 200 181 195 183 202 156 177 224 218 188 215 218 209 224 210 220 202 193 192 230 212 204
257 257 252 244 236 240 244 228 225 224 224 222 220 220 220 221 220 143 216 216 210 208 206 205 187 199 141 204 196 209 206 216 188 212 217 220 212 220 203 193 189 181 196
235 244 250 247 243 236 234 239 245 241 233 231 233 224 214 221 224 221 217 221 227 225 224 224 221 193 203 200 208 205 166 211 214 207 205 217 227 195 228 203 194 191 177
232 233 234 235 234 234 236 235 236 235 237 235 239 237 236 235 227 226 234 228 228 231 213 212 221 222 204 208 209 211 197 222 224 208 224 243 231 223 224 227 204 194 188
229 232 231 232 229 229 235 233 230 230 234 232 223 233 228 243 222 233 241 245 206 228 227 227 220 203 225 218 220 216 218 208 211 206 241 252 247 239 231 187 218 205 194
235 222 225 218 234 233 236 232 229 228 239 234 228 229 233 231 231 231 230 226 231 242 230 236 226 212 207 212 219 219 204 191 226 222 224 224 243 257 235 232 178 215 207
226 224 226 241 242 229 236 246 225 242 230 229 245 243 241 238 239 239 240 247 244 242 226 231 214 210 203 209 227 213 218 200 231 211 222 221 226 230 256 230 228 222 212
238 238 237 240 240 233 227 232 239 239 227 246 237 237 236 240 238 238 234 232 231 234 226 226 230 219 216 216 211 200 221 216 238 216 214 210 208 224 226 238 232 227 226
249 242 256 249 247 256 243 234 242 247 244 229 241 230 243 232 231 235 229 229 235 235 247 251 245 233 225 216 218 226 227 212 213 219 217 205 206 221 223 202 225 231 222
253 257 252 252 250 252 259 259 254 247 249 247 246 235 242 246 230 240 238 230 228 233 244 258 239 239 234 225 225 220 223 227 223 219 212 211 202 207 246 233 231 229 222
255 255 255 259 256 255 255 257 258 259 260 256 254 256 254 258 242 245 258 240 234 234 228 238 242 239 237 228 237 231 218 214 216 216 225 225 227 229 225 236 218 193 210
322 326 330 333 313 342 324 310 316 282 277 271 266 261 264 256 262 247 249 262 250 239 237 237 236 230 238 235 217 219 225 223 229 224 227 222 209 212 220 222 221 229 217
311 315 310 307 307 312 318 321 327 336 343 350 356 349 288 278 265 270 262 262 255 264 250 239 232 242 239 241 239 236 236 228 232 230 227 220 227 225 235 228 223 224 234
278 301 306 311 314 319 330 348 369 386 410 485 434 424 538 372 384 298 279 268 270 262 260 266 254 242 240 243 232 240 248 242 229 238 238 248 237 227 234 236 239 239 234
278 283 294 295 315 332 350 369 409 471 481 492 509 515 514 512 510 509 421 303 274 276 273 268 264 263 259 249 246 247 247 249 238 248 248 253 242 255 230 240 233 240 236
286 292 311 326 338 359 440 471 479 488 492 493 497 491 488 485 481 482 483 491 385 374 333 273 278 271 268 266 267 263 256 260 252 248 254 247 255 254 251 245 239 239 241
305 322 329 346 375 472 488 503 480 493 488 487 478 473 466 462 458 455 455 459 467 472 381 361 362 289 279 276 278 271 269 268 268 270 261 255 253 250 252 252 253 252 252
320 336 346 442 486 482 470 461 500 488 480 472 464 458 450 445 439 437 437 438 442 449 457 483 432 363 355 358 367 299 287 283 280 277 277 276 276 276 274 270 265 265 262
335 347 434 483 473 468 504 502 487 475 467 459 452 445 437 430 426 422 420 421 423 426 432 450 472 479 483 416 363 351 348 352 355 343 340 323 315 311 309 308 307 307 310
Wind_Speed
74 70 81 77 74 82 69 61 62 64 65 64 56 67 66 64 66 64 66 61 61 55 59 49 53 52 39 43 46 50 46 42 34 39 40 43 47 48 50 57 62 58 55
82 85 76 86 80 81 71 68 67 68 67 65 64 67 65 64 68 71 46 68 68 59 57 50 61 42 49 63 46 55 45 42 34 44 41 40 48 49 53 54 56 58 60
72 78 75 82 78 73 71 73 72 69 69 69 70 72 72 72 73 52 72 71 73 66 65 71 58 59 68 51 61 55 49 45 42 40 46 44 46 52 53 53 56 54 56
69 68 74 75 77 75 75 75 75 75 72 73 73 75 74 56 75 74 73 75 75 76 48 67 66 59 56 68 68 58 56 54 44 36 47 50 46 51 54 50 57 62 61
62 64 68 73 74 75 77 79 80 80 77 78 79 78 77 80 79 80 79 79 77 71 78 83 79 82 46 59 51 60 58 56 51 45 40 50 52 55 56 56 55 58 57
55 59 63 68 70 73 75 78 80 83 83 82 80 81 81 81 83 86 80 77 84 81 80 83 82 42 47 81 58 67 65 64 56 54 45 50 56 55 59 62 62 60 60
59 59 64 67 69 57 72 76 80 84 84 84 85 82 81 82 82 84 78 77 78 68 71 82 90 77 81 56 57 72 51 56 61 54 52 50 58 62 57 66 62 65 63
48 55 61 64 68 71 72 75 78 81 83 86 87 86 86 85 84 83 83 88 85 75 78 87 74 75 49 60 77 71 65 61 57 52 47 55 54 64 64 61 69 71 67
39 45 53 60 64 66 71 75 78 80 82 85 87 88 89 88 89 59 88 87 90 88 88 96 71 92 55 80 68 78 73 63 56 58 60 58 61 62 70 68 64 57 64
53 47 50 55 61 65 68 69 71 77 81 83 84 85 84 86 88 86 85 85 84 82 81 83 83 74 86 87 83 80 59 76 72 68 69 69 68 74 65 73 71 68 58
54 55 58 58 60 63 63 66 67 71 75 78 80 82 83 82 84 84 86 82 78 77 79 82 85 78 82 84 86 83 76 81 80 72 76 67 68 67 65 69 77 75 70
60 61 61 61 63 65 62 64 69 73 73 74 77 77 80 78 81 80 79 79 75 76 78 79 84 92 84 84 85 84 84 82 62 57 62 59 63 64 68 59 79 81 78
63 61 63 62 67 68 67 69 72 73 71 74 77 78 78 80 82 80 80 79 79 75 81 85 86 89 88 88 86 87 82 67 72 64 64 63 60 65 68 73 61 84 87
66 66 65 72 74 72 74 73 75 70 75 77 71 74 77 79 77 76 76 73 74 76 80 85 88 90 91 95 91 93 94 77 78 75 66 68 68 68 67 74 82 89 91
72 72 71 72 74 75 72 73 72 72 77 71 75 78 80 82 78 76 77 77 77 79 81 85 90 94 98 97 95 79 95 94 77 81 78 76 73 74 75 75 82 88 93
83 77 80 80 80 82 82 79 83 83 81 81 81 81 83 84 83 83 84 82 81 80 80 84 91 98 103 100 97 95 96 82 82 86 82 79 79 83 84 78 85 88 92
83 85 82 82 82 82 84 86 86 86 86 86 87 88 87 88 88 88 90 90 87 84 82 87 92 98 105 106 106 107 104 103 105 101 85 83 79 84 91 95 92 94 95
85 86 86 87 86 86 86 89 90 91 91 91 92 92 91 91 95 95 95 97 95 93 89 89 98 99 105 109 109 112 95 96 96 100 105 103 102 102 99 98 93 77 87
65 67 69 71 85 75 85 91 92 102 101 99 97 96 98 98 98 99 99 97 104 102 99 98 98 99 107 109 98 98 107 105 109 105 106 106 91 92 102 104 100 105 96
64 66 72 76 79 81 83 86 88 89 90 92 94 98 109 106 103 105 104 104 104 108 110 105 102 107 107 110 114 115 117 111 111 111 112 106 112 111 115 112 106 110 115
71 70 72 75 79 83 86 89 91 90 87 72 83 83 59 97 99 113 111 109 110 109 110 114 115 110 109 113 108 113 120 122 111 123 121 124 124 120 122 123 125 124 121
75 78 81 84 86 90 93 92 86 76 73 69 62 56 53 53 55 57 89 105 110 114 115 115 115 117 118 115 115 118 120 122 115 122 123 123 122 120 118 123 117 120 120
81 83 82 85 90 91 85 77 72 67 63 58 52 50 49 50 51 54 57 58 103 107 110 115 121 120 120 121 124 123 122 123 122 122 125 121 123 126 124 124 122 124 128
82 83 87 89 90 79 70 63 62 58 54 49 47 46 46 47 49 52 54 57 59 62 105 109 111 126 124 123 126 125 125 125 126 127 127 125 126 124 125 127 130 130 131
88 90 92 89 74 68 65 62 51 50 47 45 43 42 43 45 47 49 51 53 54 57 59 54 82 109 111 111 110 130 133 132 130 129 130 130 130 131 132 133 133 134 136
94 95 90 73 68 63 51 47 45 44 42 41 41 40 40 43 44 47 49 50 51 53 54 53 50 52 55 88 109 111 112 111 111 116 119 125 129 130 130 130 130 129 128
Wind_Direction
213 214 225 229 223 227 235 228 229 232 234 238 237 250 256 251 256 261 260 266 267 270 276 274 281 286 275 292 297 300 293 297 267 262 259 238 234 239 238 235 235 244 249
220 220 215 224 232 224 237 235 237 234 235 236 240 243 246 244 261 260 264 267 268 272 273 271 282 278 287 293 285 292 286 290 285 268 257 245 241 238 238 239 239 238 241
217 226 232 228 228 235 234 238 239 238 237 239 241 247 253 260 262 262 266 269 270 273 275 278 279 282 287 278 291 283 284 284 291 264 261 255 246 241 243 246 247 247 246
223 225 228 230 230 229 234 240 240 241 241 241 242 243 250 262 260 265 269 270 272 274 272 278 283 272 278 283 284 284 282 286 277 274 259 256 254 249 246 254 248 251 251
225 229 229 226 229 231 233 234 237 241 245 243 244 244 245 247 254 257 263 266 270 276 274 275 279 279 268 279 273 280 277 278 278 279 261 256 255 256 251 251 249 249 253
232 233 231 229 229 231 232 234 234 239 242 245 249 248 249 251 251 254 261 266 263 267 271 275 274 257 258 279 275 276 276 282 276 274 277 258 257 257 256 254 250 253 251
236 236 234 234 234 247 234 235 235 237 243 245 248 252 254 253 254 255 259 261 263 265 271 270 271 271 275 263 272 276 269 272 276 273 266 260 254 256 256 257 260 257 255
238 239 240 240 240 240 240 241 241 242 242 245 249 251 253 255 256 258 257 260 264 265 264 268 273 272 262 269 277 275 268 275 271 268 265 257 255 252 255 255 254 257 258
239 240 241 242 242 243 243 245 247 247 248 248 250 252 254 256 256 265 258 259 261 263 263 265 260 266 274 272 267 276 276 272 259 272 276 264 261 256 251 254 257 259 260
242 243 242 244 243 244 245 246 246 248 249 251 252 253 255 257 257 258 260 260 260 259 258 258 260 265 266 269 268 272 264 272 271 271 271 269 266 256 257 250 253 256 260
239 240 242 243 246 246 245 245 246 247 247 250 252 252 254 255 256 256 257 257 257 254 255 256 258 258 262 263 266 267 272 267 268 270 271 260 257 257 251 246 249 253 257
241 241 244 244 246 248 246 246 248 250 250 252 252 253 252 252 254 253 253 252 255 253 251 248 249 263 256 258 259 261 262 270 269 259 256 253 253 253 249 258 244 250 256
246 254 252 253 248 247 249 250 249 249 248 250 251 252 251 251 251 251 252 253 252 247 247 245 246 257 261 261 260 259 267 270 263 260 261 258 256 251 248 246 267 248 251
257 259 259 255 250 256 256 255 254 254 250 254 253 251 249 249 248 249 248 246 246 245 246 242 249 255 261 262 256 261 262 265 257 261 259 259 258 255 254 248 246 247 250
262 261 263 262 260 259 257 257 257 255 254 254 252 253 252 250 248 246 247 248 246 246 247 246 245 248 253 254 262 263 263 268 255 258 260 259 260 257 254 251 249 250 251
263 267 265 263 263 259 259 258 259 258 257 253 253 252 252 253 252 251 251 249 249 249 247 241 241 241 246 253 255 251 253 264 266 265 261 259 262 262 263 261 254 253 254
269 268 267 265 263 263 263 260 259 258 257 255 252 253 253 249 253 250 249 253 252 248 245 240 240 238 241 246 249 254 254 255 261 264 264 262 260 264 260 259 258 255 258
271 271 271 270 269 268 267 265 263 261 258 256 257 256 253 251 249 248 245 246 249 249 249 243 241 243 241 245 245 249 257 260 261 263 263 265 266 267 268 263 265 264 265
285 284 282 281 275 279 274 271 269 265 264 262 259 256 254 252 250 250 248 247 245 246 248 247 244 246 243 245 256 256 254 256 256 259 260 262 266 267 269 271 272 270 267
290 289 286 284 283 281 278 276 275 273 271 268 265 261 256 254 252 250 249 247 246 245 245 248 250 248 247 246 247 250 252 256 256 258 260 262 262 263 263 265 268 271 268
291 296 294 292 290 288 288 289 289 288 286 289 278 274 286 257 254 250 250 250 248 247 247 245 246 249 250 249 253 251 250 251 257 256 257 257 257 262 263 263 264 264 266
297 299 299 297 296 296 295 295 295 297 295 293 292 288 282 275 270 266 252 250 250 249 248 247 248 248 248 251 252 252 253 253 256 255 256 256 256 258 261 262 263 263 266
305 302 303 303 301 301 305 303 299 296 294 293 290 285 279 273 267 263 261 260 249 248 250 250 249 249 250 250 250 251 253 253 255 257 257 259 258 259 259 261 264 265 266
309 313 310 309 310 309 305 301 299 296 294 292 287 282 276 271 267 263 260 259 258 257 249 248 249 249 251 252 252 253 254 255 255 255 257 258 259 261 261 262 263 264 265
319 318 315 317 312 310 308 304 299 296 292 288 284 280 275 270 267 264 262 260 259 258 257 258 252 250 250 251 252 253 254 255 256 257 258 259 259 259 260 261 262 262 264
323 321 320 316 314 312 306 302 298 294 290 286 282 278 273 269 265 262 262 261 260 259 258 258 259 257 257 253 252 252 253 254 255 255 256 256 258 259 260 261 262 263 264